DateTimeUTC,F1_A11,F1_S11,BsB_S11,BsG_S11,BsR_S11,BbsB_S11,BbsG_S11,BbsR_S11,BaB_A11,BaG_A11,BaR_A11,Tu_S11,T_S11,Uu_S11,U_S11,P_S11,T1_A11
2021-08-24T18:00:00Z,00000200,20000000,,,,,,,-000.23,-000.40,-000.06,19.4,25.9,10.8,07.3,0679.3,31.1
2021-08-24T18:01:00Z,00000200,20000000,,,,,,,0000.19,0000.16,0000.25,19.4,25.9,10.8,07.3,0679.3,31.1
2021-08-24T18:02:00Z,00000200,20000000,,,,,,,-000.21,-000.01,-000.25,19.4,25.9,10.7,07.2,0679.3,31.0
2021-08-24T18:03:00Z,00000200,60000000,,,,,,,0001.06,0000.93,0000.83,19.4,25.9,10.7,07.2,0679.3,31.1
2021-08-24T18:04:00Z,00000200,40000000,0005.08,0004.14,0002.67,0000.79,0000.54,0000.35,0000.95,0001.02,0000.62,19.4,25.8,11.0,07.5,0680.1,31.0
2021-08-24T18:05:00Z,00000200,00000000,0004.72,0003.76,0002.57,0001.17,0000.65,0000.06,0001.00,0000.93,0000.98,19.5,25.8,11.1,07.5,0680.2,31.0
2021-08-24T18:06:00Z,00000200,00000000,0004.60,0003.97,0001.99,0000.77,0000.48,0000.06,0000.61,0001.02,0001.05,19.5,25.7,11.1,07.6,0680.3,31.0
2021-08-24T18:07:00Z,00000200,00000000,0004.27,0003.42,0002.50,0000.45,0000.31,0000.21,0001.10,0000.43,0000.16,19.5,25.7,11.2,07.6,0680.3,31.0
2021-08-24T18:08:00Z,00000200,00000000,0004.14,0003.68,0002.58,0000.74,0000.77,0000.27,0001.04,0001.02,0000.94,19.5,25.7,11.2,07.7,0680.3,31.0
2021-08-24T18:09:00Z,00000200,00000000,0004.75,0003.79,0002.96,0000.87,0000.26,0000.49,0001.12,0001.21,0000.60,19.5,25.7,11.2,07.7,0680.3,31.0
2021-08-24T18:10:00Z,00000200,00000000,0003.71,0004.24,0002.64,0000.82,0000.49,0000.37,0001.09,0000.82,0000.76,19.5,25.7,11.2,07.7,0680.2,31.1
2021-08-24T18:11:00Z,00000200,00000000,0004.44,0003.54,0002.51,0000.57,0000.42,0000.05,0000.90,0001.15,0000.88,19.5,25.7,11.3,07.7,0680.2,31.1
2021-08-24T18:12:00Z,00000200,00000000,0004.64,0003.53,0002.40,0001.24,0000.83,0000.24,0001.33,0000.90,0000.98,19.5,25.7,11.3,07.7,0680.2,31.0
2021-08-24T18:13:00Z,00000200,00000000,0004.58,0003.50,0002.63,0000.53,0000.45,0000.44,0000.98,0000.88,0000.66,19.5,25.7,11.3,07.8,0680.2,31.1
2021-08-24T18:14:00Z,00000200,00000000,0004.92,0003.88,0002.87,0000.73,0000.68,0000.54,0000.83,0001.44,0001.09,19.5,25.7,11.3,07.8,0680.2,31.0
2021-08-24T18:15:00Z,00000200,00000000,0003.92,0003.47,0002.53,0001.22,0000.58,0000.49,0001.18,0000.52,0000.57,19.5,25.7,11.4,07.8,0680.1,31.1
2021-08-24T18:16:00Z,00000200,00000000,0004.82,0003.17,0002.36,0000.44,0000.66,0000.29,0000.97,0000.99,0000.44,19.5,25.7,11.4,07.8,0680.2,31.0
2021-08-24T18:17:00Z,00000200,00000000,0004.85,0003.78,0002.47,0000.95,0000.33,0000.33,0001.37,0001.46,0001.34,19.5,25.7,11.5,07.9,0680.2,31.0
2021-08-24T18:18:00Z,00000200,00000000,0004.67,0003.87,0002.44,0000.00,0000.66,0000.33,0000.91,0000.56,0000.78,19.5,25.7,11.5,07.9,0680.2,31.0
2021-08-24T18:19:00Z,00000200,00000000,0004.91,0003.62,0002.79,0000.70,0000.66,0000.01,0000.95,0001.19,0000.64,19.5,25.7,11.5,07.9,0680.3,31.0
2021-08-24T18:20:00Z,00000200,00000000,0004.51,0003.43,0002.67,0000.35,0000.30,0000.51,0001.16,0000.88,0001.03,19.5,25.7,11.5,07.9,0680.2,31.0
2021-08-24T18:21:00Z,00000200,00000000,0004.56,0003.88,0002.46,0000.22,0000.51,0000.32,0000.88,0000.70,0000.32,19.5,25.7,11.5,07.9,0680.3,31.0
2021-08-24T18:22:00Z,00000200,00000000,0004.27,0003.57,0002.45,0000.57,0000.39,0000.14,0001.16,0001.35,0001.25,19.5,25.7,11.5,07.9,0680.3,31.0
2021-08-24T18:23:00Z,00000200,00000000,0004.01,0003.33,0002.94,0000.66,0001.03,0000.01,0000.82,0000.55,0000.48,19.5,25.7,11.5,07.9,0680.2,31.1
2021-08-24T18:24:00Z,00000200,00000000,0004.75,0003.32,0002.41,0000.86,0000.73,0000.31,0000.82,0000.96,0000.84,19.5,25.7,11.5,07.9,0680.3,31.0
2021-08-24T18:25:00Z,00000200,00000000,0003.86,0003.62,0002.36,0000.81,0000.65,0000.23,0000.97,0000.87,0000.91,19.5,25.7,11.6,07.9,0680.3,31.0
2021-08-24T18:26:00Z,00000200,00000000,0004.26,0003.30,0002.79,0000.69,0000.51,0000.57,0001.45,0001.32,0000.65,19.5,25.7,11.7,08.0,0680.3,31.0
2021-08-24T18:27:00Z,00000200,00000000,0004.31,0003.70,0002.49,0000.79,0000.70,0000.20,0000.93,0001.11,0000.72,19.5,25.7,11.6,08.0,0680.3,31.0
2021-08-24T18:28:00Z,00000200,00000000,0004.44,0003.39,0002.26,0000.50,0000.65,0000.27,0000.80,0000.62,0000.85,19.5,25.7,11.6,07.9,0680.3,31.1
2021-08-24T18:29:00Z,00000200,00000000,0004.08,0003.47,0002.52,0000.39,0000.48,0000.18,0001.34,0001.06,0000.65,19.5,25.7,11.6,08.0,0680.3,31.0
2021-08-24T18:30:00Z,00000200,00000000,0003.73,0003.72,0002.52,0000.64,0000.52,-000.05,0001.04,0001.00,0001.21,19.5,25.6,11.6,07.9,0680.2,31.0
2021-08-24T18:31:00Z,00000200,00000000,0005.47,0003.73,0002.61,0001.07,0000.48,0000.10,0000.92,0000.72,0000.42,19.5,25.7,11.6,07.9,0680.3,31.0
2021-08-24T18:32:00Z,00000200,00000000,0004.47,0003.95,0002.70,0000.59,0000.59,0000.03,0000.90,0000.98,0000.32,19.5,25.7,11.6,08.0,0680.3,31.0
2021-08-24T18:33:00Z,00000200,00000000,0004.39,0003.47,0002.60,0000.43,0000.44,0000.30,0001.09,0000.89,0001.07,19.5,25.7,11.6,08.0,0680.3,31.0
2021-08-24T18:34:00Z,00000200,00000000,0003.93,0003.67,0002.47,0001.47,0000.48,-000.05,0000.90,0001.10,0000.95,19.5,25.7,11.7,08.0,0680.4,31.0
2021-08-24T18:35:00Z,00000200,00000000,0005.02,0003.55,0002.52,0000.26,0000.64,0000.62,0000.86,0001.11,0000.64,19.5,25.7,11.6,08.0,0680.3,31.1
2021-08-24T18:36:00Z,00000200,00000000,0004.24,0003.42,0002.69,0000.27,0000.21,0000.14,0001.05,0000.46,0000.77,19.5,25.7,11.7,08.0,0680.3,31.1
2021-08-24T18:37:00Z,00000200,00000000,0004.75,0003.68,0002.40,0000.20,0000.40,0000.15,0000.61,0000.93,0000.52,19.5,25.7,11.8,08.1,0680.3,31.1
2021-08-24T18:38:00Z,00000200,00000000,0003.42,0003.41,0002.60,0000.34,0000.49,0000.46,0001.37,0000.76,0000.96,19.5,25.7,11.7,08.0,0680.4,31.1
2021-08-24T18:39:00Z,00000200,00000000,0004.07,0003.68,0002.76,0000.39,0000.10,0000.21,0000.85,0000.92,0000.52,19.5,25.7,11.7,08.1,0680.3,31.0
2021-08-24T18:40:00Z,00000200,00000000,0004.27,0003.48,0002.43,0000.94,0000.35,0000.13,0001.01,0001.32,0000.75,19.5,25.7,11.8,08.1,0680.3,31.0
2021-08-24T18:41:00Z,00000200,00000000,0004.56,0003.48,0002.25,0000.64,0000.59,0000.29,0000.93,0000.34,0001.00,19.5,25.6,11.8,08.1,0680.3,31.1
2021-08-24T18:42:00Z,00000200,00000000,0003.88,0003.63,0002.56,0000.74,0000.64,0000.12,0001.19,0001.05,0000.55,19.5,25.7,11.8,08.1,0680.4,31.0
2021-08-24T18:43:00Z,00000200,00000000,0004.04,0004.16,0002.54,0000.68,0000.82,0000.15,0000.98,0001.09,0000.96,19.5,25.7,11.9,08.1,0680.4,31.0
2021-08-24T18:44:00Z,00000200,00000000,0003.33,0003.53,0002.56,0000.75,0000.56,0000.43,0000.84,0000.99,0000.60,19.5,25.7,11.8,08.1,0680.3,31.0
2021-08-24T18:45:00Z,00000200,00000000,0004.70,0003.49,0002.37,0000.00,0000.34,0000.29,0001.19,0000.99,0001.04,19.5,25.7,11.9,08.1,0680.3,31.0
2021-08-24T18:46:00Z,00000200,00000000,0003.46,0003.26,0002.31,0001.02,0000.40,0000.33,0000.94,0000.95,0000.34,19.5,25.7,11.9,08.1,0680.3,31.0
2021-08-24T18:47:00Z,00000200,00000000,0004.18,0003.43,0002.32,0001.25,0000.63,0000.47,0000.67,0000.71,0001.02,19.5,25.7,12.0,08.2,0680.4,31.1
2021-08-24T18:48:00Z,00000200,00000000,0004.26,0003.66,0002.27,0000.78,0000.63,0000.34,0001.02,0000.81,0000.60,19.5,25.7,11.9,08.1,0680.3,31.0
2021-08-24T18:49:00Z,00000200,00000000,0003.90,0003.84,0002.52,0001.19,0000.44,0000.10,0001.47,0000.95,0000.91,19.5,25.7,12.0,08.2,0680.4,31.0
2021-08-24T18:50:00Z,00000200,00000000,0004.13,0003.58,0002.12,0001.08,0000.54,0000.03,0000.80,0001.53,0001.03,19.5,25.7,12.1,08.3,0680.3,31.0
2021-08-24T18:51:00Z,00000200,00000000,0004.79,0003.56,0002.32,0001.24,0000.31,0000.25,0001.17,0000.59,0001.06,19.5,25.6,12.0,08.3,0680.3,31.0
2021-08-24T18:52:00Z,00000200,00000000,0004.36,0003.66,0002.22,0000.68,0000.33,0000.37,0000.84,0001.06,0000.35,19.5,25.7,12.1,08.3,0680.3,31.0
2021-08-24T18:53:00Z,00000200,00000000,0004.07,0003.65,0002.69,0000.58,0000.64,0000.38,0000.77,0000.68,0000.58,19.5,25.7,12.2,08.3,0680.4,31.0
2021-08-24T18:54:00Z,00000200,00000000,0003.96,0003.42,0002.40,0000.56,0000.20,0000.21,0000.89,0000.92,0000.45,19.5,25.7,12.0,08.3,0680.4,31.0
2021-08-24T18:55:00Z,00000200,00000000,0003.75,0003.60,0002.21,0000.51,0000.51,0000.02,0001.23,0000.92,0000.91,19.5,25.7,12.1,08.3,0680.4,31.0
2021-08-24T18:56:00Z,00000200,00000000,0004.37,0003.48,0002.21,0000.88,0000.54,0000.21,0000.89,0001.08,0000.88,19.5,25.7,12.1,08.3,0680.4,31.0
2021-08-24T18:57:00Z,00000200,40000000,,,,,,,0000.08,-000.33,0000.08,19.6,25.7,11.7,08.1,0680.3,31.0
2021-08-24T18:58:00Z,00000200,60000000,,,,,,,-000.12,0000.24,-000.14,19.3,25.8,12.1,08.1,0679.5,31.0
2021-08-24T18:59:00Z,00000200,20000000,,,,,,,0000.40,0000.20,0000.38,19.3,25.9,12.1,08.1,0679.4,31.0
